ZY-1 02D (44528 NORAD) Tracking and Keplerian Element Data

This shows tracking and keplerian element data for the satellite.

Feedback or suggestion? Click here.




ElementValue
Catalog44528
NameZY-1 02D
Epoch Orbit401
Epoch Day283.12733404
Epoch Year2019
RAAN356.2453
Inclination98.5766
Eccentricity8.49E-05
Argument of Perigee124.8891
Mean Anonmoly235.238
Mean Motion14.35324979
Decay Rate-1.27E-06
L11 44528U 19059A 19283.12733404 -.00000127 00000-0 -28762-4 0 9995
L22 44528 98.5766 356.2453 0000849 124.8891 235.2380 14.35324979 4013

Live tracking and technical data element details for ZY-1 02D (NORAD 44528). ZY-1 02D can be tracked NOW for your location showing map with azimuth and elevation plus other details from your city location.

Track the satellite on the map from your city or location and see movement details for azimuth, elevation, latitude, longitude, range, height, and movement on the map or in text.







IsCatalogInMostPopularTable: catalog: 44528, numindb: 26
Update: records affected: 1



GetName: 44528 ZY-1 02D

Hit Count: updated at: Thu, 14 Nov 2019 06:17:29 GMT